EW6254 Weather Reports


time (UTC)temp
C
wind
direction
speed
KPH
gust
KPH
rain 1hr
cm
rain 24hr
cm
rain mn
cm
humidity
%
barometer
mb
20170926034515 14 0 0.0 6.4 0.30 2.49 2.49 96 1012.9
20170926033514 14 0 1.6 6.4 0.41 2.44 2.44 96 1012.7
20170926032455 14 0 3.2 11.3 0.51 2.39 2.39 96 1012.6
20170926031444 14 0 1.6 11.3 0.84 2.29 2.29 96 1012.5
20170926030408 14 0 3.2 8.0 0.30 2.03 2.06 95 1012.3
20170926025407 14 0 6.4 11.3 0.46 2.01 2.01 95 1012.1
20170926024418 14 0 4.8 12.9 0.58 1.91 1.93 95 1012.1
20170926023345 15 0 3.2 12.9 0.00 1.85 1.85 95 1012.2
20170926022351 15 0 3.2 12.9 0.10 1.85 1.85 95 1012.3
20170926021406 15 0 3.2 11.3 0.10 1.83 1.83 95 1012.3
20170926020354 15 0 4.8 9.7 0.20 1.83 1.83 95 1012.4
20170926015335 15 0 3.2 11.3 0.15 1.80 1.80 95 1012.5
20170926014340 15 0 6.4 14.5 0.13 1.78 1.78 95 1012.3
20170926013311 15 0 8.0 16.1 0.00 1.75 1.73 95 1012.4
20170926012322 15 0 6.4 16.1 0.00 1.73 1.70 95 1012.4
20170926011255 15 0 4.8 12.9 0.00 1.73 1.70 95 1012.3
20170926010258 15 0 6.4 11.3 0.00 1.70 1.68 95 1012.2
20170926005254 15 0 6.4 16.1 0.00 1.70 1.68 95 1012.0
20170926004219 15 0 6.4 16.1 0.00 1.70 1.68 95 1011.8
20170926003210 16 0 4.8 14.5 0.00 1.68 1.68 95 1012.1
20170926002153 16 19 4.8 14.5 0.00 1.68 1.68 95 1012.0
20170926001123 16 348 4.8 14.5 0.00 1.68 1.68 95 1011.5
20170926000133 16 11 6.4 14.5 0.00 1.68 1.68 95 1011.6
20170925235108 16 0 3.2 11.3 0.00 1.68 1.68 95 1011.3
20170925234128 16 0 6.4 16.1 0.00 1.68 1.68 95 1010.7
20170925233108 16 0 8.0 16.1 0.00 1.68 1.68 95 1010.7
20170925232117 17 0 6.4 12.9 0.00 1.68 1.68 95 1010.7
20170925231125 17 0 6.4 14.5 0.00 1.68 1.68 95 1011.0
20170925230105 17 0 4.8 14.5 0.00 1.68 1.68 95 1011.2
20170925225031 17 0 4.8 11.3 0.00 1.65 1.65 95 1011.0
20170925224006 17 327 4.8 12.9 0.00 1.65 1.65 95 1010.7
20170925222959 17 355 4.8 12.9 0.00 1.65 1.65 95 1010.6
20170925222002 17 344 6.4 11.3 0.00 1.65 1.65 95 1010.7
20170925220932 17 348 1.6 6.4 0.00 1.65 1.65 95 1010.9
20170925215904 17 0 1.6 8.0 0.00 1.65 1.65 95 1011.4
20170925214917 17 331 1.6 8.0 0.00 1.65 1.65 95 1011.6
20170925213901 17 355 1.6 6.4 0.00 1.65 1.65 95 1011.5
20170925212901 17 308 3.2 8.0 0.00 1.65 1.65 95 1011.1
20170925211854 17 0 1.6 8.0 0.00 1.65 1.65 95 1011.0
20170925210824 17 355 3.2 9.7 0.00 1.63 1.65 95 1011.1
20170925205750 17 321 3.2 9.7 0.00 1.63 1.63 95 1010.8
20170925204715 17 335 1.6 8.0 0.00 1.63 1.63 95 1011.0
20170925203731 17 0 3.2 11.3 0.00 1.63 1.63 95 1010.7
20170925202738 17 0 4.8 11.3 0.00 1.63 1.63 95 1010.7
20170925201742 17 9 3.2 6.4 0.00 1.63 1.63 95 1011.0
20170925200757 17 329 3.2 9.7 0.00 1.63 1.63 95 1010.7
20170925195754 17 338 3.2 9.7 0.00 1.63 1.63 95 1010.5
20170925194809 17 319 3.2 14.5 0.00 1.63 1.63 95 1010.6
20170925193821 17 288 3.2 14.5 0.00 1.85 1.63 95 1010.3
20170925192745 17 355 4.8 12.9 0.00 1.85 1.63 95 1010.7
20170925191754 18 355 3.2 11.3 0.00 1.96 1.63 95 1010.9
20170925190732 18 0 1.6 8.0 0.00 1.96 1.63 95 1011.0
20170925185713 18 313 1.6 8.0 0.00 1.96 1.63 95 1011.0
20170925184651 18 317 1.6 8.0 0.00 1.96 1.63 95 1011.3
20170925183649 18 350 1.6 6.4 0.00 1.96 1.63 95 1011.2
20170925182706 18 10 1.6 9.7 0.00 1.96 1.63 95 1011.1
20170925181629 17 5 4.8 9.7 0.00 1.96 1.63 95 1011.1
20170925180635 17 0 3.2 6.4 0.13 1.96 1.63 95 1011.1
20170925175658 17 0 1.6 6.4 0.13 1.96 1.63 95 1011.3
20170925174625 17 0 1.6 9.7 0.00 1.93 1.57 96 1011.0
20170925173553 17 0 4.8 9.7 0.10 1.91 1.57 95 1010.9
20170925172606 17 0 3.2 9.7 0.23 1.91 1.57 95 1010.8
20170925171547 17 0 3.2 9.7 0.23 1.88 1.55 95 1011.2
20170925170553 17 0 1.6 4.8 0.23 1.83 1.47 95 1011.3
20170925165535 17 0 1.6 4.8 0.23 1.78 1.45 95 1011.6
20170925164542 17 0 0.0 0.0 0.18 1.73 1.42 95 1011.9
20170925163542 17 0 1.6 6.4 0.46 1.70 1.35 95 1012.2
20170925162548 17 0 0.0 4.8 1.32 1.42 1.12 95 1012.8
20170925161554 17 0 0.0 1.6 0.23 1.37 1.04 95 1012.2
20170925160558 17 0 0.0 0.0 0.30 1.32 1.02 95 1012.3
20170925155613 16 0 3.2 8.0 0.13 1.22 0.89 95 1012.5
20170925154603 16 0 0.0 1.6 0.18 1.19 0.89 95 1012.1
20170925153604 16 0 1.6 6.4 1.22 1.14 0.84 95 1012.0
20170925152609 16 0 1.6 6.4 0.00 1.07 0.74 95 1011.9
20170925151625 16 0 1.6 9.7 0.00 1.07 0.74 95 1011.9
20170925150611 16 0 1.6 9.7 0.00 1.07 0.74 95 1011.9
20170925145545 16 0 3.2 9.7 0.00 1.07 0.74 96 1012.0
20170925144522 16 0 4.8 16.1 0.00 1.07 0.74 96 1011.7
20170925143451 15 0 4.8 16.1 0.00 1.07 0.74 96 1011.5
20170925142444 15 0 4.8 16.1 0.00 1.07 0.74 96 1011.4
20170925141430 15 0 4.8 12.9 0.00 1.07 0.74 96 1011.6
20170925140441 14 0 4.8 12.9 0.00 1.07 0.74 95 1011.6
20170925135453 14 0 4.8 14.5 0.00 1.07 0.74 96 1011.8
20170925134514 14 0 6.4 14.5 0.00 1.07 0.74 95 1011.9
20170925133451 13 0 8.0 17.7 0.00 1.07 0.74 95 1012.0
20170925132458 14 0 6.4 17.7 0.00 1.07 0.74 95 1012.0
20170925131421 14 0 8.0 16.1 0.00 1.07 0.74 95 1012.3
20170925130432 14 0 4.8 14.5 0.00 1.07 0.74 95 1012.2
20170925125431 14 0 6.4 14.5 0.00 1.07 0.74 95 1012.1
20170925124436 14 0 4.8 12.9 0.00 1.07 0.74 95 1012.1
20170925123427 15 0 6.4 12.9 0.00 1.07 0.74 95 1012.1
20170925122354 15 0 6.4 12.9 0.00 1.07 0.74 95 1012.1
20170925121405 15 0 4.8 12.9 0.00 1.07 0.74 95 1012.0
20170925120417 15 0 4.8 12.9 0.00 1.07 0.74 95 1012.0
20170925115406 15 0 4.8 12.9 0.00 1.07 0.74 95 1012.1
20170925114355 16 0 4.8 12.9 0.00 1.07 0.74 95 1012.0
20170925113338 16 0 4.8 12.9 0.00 1.07 0.74 95 1012.0
20170925112320 16 0 3.2 12.9 0.00 1.07 0.74 95 1011.8
20170925111313 15 0 0.0 3.2 0.00 1.07 0.74 95 1011.3
20170925110312 15 0 1.6 8.0 0.00 1.07 0.74 95 1010.9
20170925105257 15 0 3.2 11.3 0.00 1.07 0.74 95 1010.7
20170925104244 15 0 6.4 14.5 0.00 1.07 0.74 95 1010.5
20170925103208 15 0 4.8 11.3 0.00 1.07 0.74 95 1010.6
20170925102215 15 0 4.8 11.3 0.00 1.07 0.74 95 1010.6
20170925101144 15 0 6.4 11.3 0.00 1.07 0.74 95 1010.6
20170925100149 15 0 3.2 11.3 0.00 1.07 0.74 95 1010.7
20170925095151 15 0 3.2 11.3 0.00 1.07 0.74 95 1011.0
20170925094118 15 0 4.8 16.1 0.00 1.07 0.74 95 1011.3
20170925093053 16 0 3.2 16.1 0.00 1.07 0.74 94 1012.1
20170925092043 16 0 4.8 14.5 0.00 1.07 0.74 94 1010.9
20170925091028 16 0 6.4 20.9 0.00 1.07 0.74 94 1010.8
20170925090031 16 0 9.7 20.9 0.00 1.07 0.74 94 1010.7
20170925085048 16 0 6.4 14.5 0.00 1.07 0.74 94 1010.6
20170925084030 17 0 4.8 22.5 0.00 1.07 0.74 94 1010.5
20170925083027 17 0 6.4 22.5 0.00 1.07 0.74 94 1010.0
20170925082034 16 0 3.2 12.9 0.00 1.07 0.74 94 1009.7
20170925080958 16 0 4.8 14.5 0.00 1.07 0.74 94 1009.6
20170925075946 16 0 6.4 14.5 0.00 1.07 0.74 94 1009.6
20170925074958 16 0 6.4 14.5 0.00 1.07 0.74 94 1009.9
20170925073927 16 0 6.4 16.1 0.00 1.07 0.74 93 1010.0
20170925072934 16 0 6.4 19.3 0.20 1.07 0.74 93 1010.2
20170925071900 17 0 8.0 16.1 0.36 1.04 0.71 93 1010.3
20170925070844 17 0 6.4 16.1 0.46 0.97 0.64 92 1010.9
20170925065836 17 0 4.8 12.9 0.58 0.86 0.53 92 1011.4
20170925064853 17 0 1.6 12.9 0.64 0.79 0.46 92 1011.9
20170925063818 17 0 0.0 0.0 0.28 0.71 0.36 91 1012.1
20170925062835 17 0 0.0 0.0 0.36 0.66 0.33 90 1012.2
20170925061830 17 0 0.0 0.0 2.01 0.51 0.20 90 1012.5
20170925060833 17 0 0.0 0.0 0.00 0.36 0.00 89 1012.2
20170925055835 17 0 0.0 0.0 0.00 0.36 0.00 89 1011.7
20170925054858 17 0 0.0 0.0 0.00 0.36 0.00 88 1011.4
20170925053854 17 287 3.2 19.3 0.00 0.36 0.00 88 1011.4
20170925052820 17 17 8.0 19.3 0.00 0.36 0.00 89 1010.8
20170925051807 17 0 9.7 17.7 0.00 0.36 0.00 89 1010.8
20170925050821 17 0 9.7 17.7 0.00 0.36 0.00 89 1011.0
20170925045819 17 17 6.4 17.7 0.00 0.36 0.36 88 1011.2
20170925044840 17 348 8.0 17.7 0.00 0.36 0.36 88 1011.4
20170925043803 17 279 6.4 16.1 0.00 0.36 0.36 89 1012.0
20170925042747 17 346 8.0 14.5 0.00 0.36 0.36 89 1011.1
20170925041721 17 355 6.4 14.5 0.00 0.36 0.36 89 1010.9
20170925040742 17 9 6.4 14.5 0.00 0.36 0.36 89 1010.9
20170925035746 17 9 6.4 14.5 0.00 0.36 0.36 89 1011.0